Location: Kaarina
(60.4167°N, 22.4167°E)
Time: 08:38:50
(UTC+03:00)

SL-16 R/B - Pass Details

Date: 24 August 2019
Orbit: 842 x 846 km, 71.0° (Epoch: 14 September)

Event Time Altitude Azimuth Distance (km) Brightness Sun altitude
Rises 22:50:21 0° 319° (NW) 3,420 7.6 -11.7°
Reaches altitude 10° 22:52:48 10° 319° (NW) 2,482 6.2 -11.9°
Maximum altitude 22:58:32 88° 233° (SW) 856 2.2 -12.3°
Enters shadow 23:02:55 18° 142° (SE) 1,982 3.5 -12.7°
